Fremont, NE

11:59 AM CST on December 11, 2017 (GMT -0600)
Fremont Municipal

Weather History for KFET - December, 2011

Change the Weather History Date:

Friday, December 23, 2011

  Actual Average Record
Temperature  
Mean Temperature 24 °F -  
Max Temperature 35 °F 32 °F 67 °F (1964)
Min Temperature 14 °F 15 °F -24 °F (1989)
Degree Days  
Heating Degree Days 40    
Moisture  
Dew Point 19 °F    
Average Humidity 75    
Maximum Humidity 93    
Minimum Humidity 56    
Precipitation  
Precipitation 0.00 in - - ()
Sea Level Pressure  
Sea Level Pressure 30.27 in    
Wind  
Wind Speed 6 mph (SW)    
Max Wind Speed 20 mph    
Max Gust Speed 25 mph    
Visibility 10 miles    
Events      
Averages and records for this station are not official NWS values.
T = Trace of Precipitation, MM = Missing Value Source: NWS Daily Summary

Daily Weather History Graph

Daily Weather History Graph

Search for Another Location

Airport or City:

Trip Planner

Search our weather history database for the weather conditions in past years. The results will help you decide how hot, cold, wet, or windy it might be!

Date:

Astronomy

Dec. 23, 2011 Rise Set
Actual Time 7:49 AM CST 5:00 PM CST
Civil Twilight 7:18 AM CST 5:31 PM CST
Nautical Twilight 6:43 AM CST 6:06 PM CST
Astronomical Twilight 6:09 AM CST 6:40 PM CST
Moon 6:40 AM CST (12/23) 4:10 PM CST (12/23)
Length of Visible Light 10h 13m
Length of Day
9h 10m
Waning Crescent, 1% of the Moon is Illuminated
Dec 23
Waning Crescent
Dec 24
New
Jan 1
First Quarter
Jan 9
Full
Jan 16
Last Quarter

Hourly Weather History & Observations

Time (CST) Temp. Windchill Dew Point Humidity Pressure Visibility Wind Dir Wind Speed Gust Speed Precip Events Conditions
12:15 AM 15.8 °F - 12.2 °F 86% 30.41 in 10.0 mi Calm Calm - N/A   Clear
12:35 AM 17.6 °F 12.3 °F 12.2 °F 79% 30.41 in 10.0 mi West 3.5 mph - N/A   Clear
12:55 AM 15.8 °F 8.6 °F 12.2 °F 86% 30.40 in 10.0 mi WNW 4.6 mph - N/A   Clear
1:15 AM 15.8 °F 8.6 °F 12.2 °F 86% 30.40 in 10.0 mi WNW 4.6 mph - N/A   Clear
1:35 AM 14.0 °F 6.5 °F 12.2 °F 93% 30.40 in 10.0 mi West 4.6 mph - N/A   Clear
1:55 AM 15.8 °F - 12.2 °F 86% 30.40 in 10.0 mi Calm Calm - N/A   Clear
2:35 AM 14.0 °F 8.2 °F 12.2 °F 93% 30.40 in 10.0 mi West 3.5 mph - N/A   Clear
3:15 AM 14.0 °F - 12.2 °F 93% 30.40 in 10.0 mi Calm Calm - N/A   Clear
3:35 AM 14.0 °F - 12.2 °F 93% 30.38 in 10.0 mi Calm Calm - N/A   Clear
3:55 AM 17.6 °F - 14.0 °F 86% 30.37 in 10.0 mi Calm Calm - N/A   Clear
4:15 AM 17.6 °F - 14.0 °F 86% 30.37 in 10.0 mi Calm Calm - N/A   Clear
4:35 AM 14.0 °F - 12.2 °F 93% 30.37 in 10.0 mi Calm Calm - N/A   Clear
4:55 AM 14.0 °F - 12.2 °F 93% 30.37 in 10.0 mi Calm Calm - N/A   Clear
5:15 AM 15.8 °F - 12.2 °F 86% 30.36 in 10.0 mi Calm Calm - N/A   Clear
5:35 AM 15.8 °F - 14.0 °F 93% 30.36 in 10.0 mi Calm Calm - N/A   Clear
5:55 AM 17.6 °F 12.3 °F 14.0 °F 86% 30.36 in 10.0 mi SSW 3.5 mph - N/A   Clear
6:15 AM 17.6 °F - 14.0 °F 86% 30.36 in 10.0 mi Calm Calm - N/A   Clear
6:35 AM 17.6 °F 9.3 °F 14.0 °F 86% 30.35 in 10.0 mi SSW 5.8 mph - N/A   Clear
6:55 AM 17.6 °F 8.2 °F 14.0 °F 86% 30.34 in 10.0 mi SW 6.9 mph - N/A   Clear
7:15 AM 19.4 °F 9.5 °F 14.0 °F 80% 30.33 in 10.0 mi SW 8.1 mph - N/A   Clear
7:55 AM 19.4 °F 8.6 °F 14.0 °F 80% 30.32 in 10.0 mi SSW 9.2 mph - N/A   Clear
8:15 AM 21.2 °F 9.5 °F 14.0 °F 74% 30.31 in 10.0 mi SSW 11.5 mph - N/A   Clear
8:35 AM 21.2 °F 10.9 °F 14.0 °F 74% 30.31 in 10.0 mi SSW 9.2 mph - N/A   Clear
8:55 AM 23.0 °F 11.1 °F 14.0 °F 68% 30.29 in 10.0 mi SSW 12.7 mph - N/A   Clear
9:15 AM 24.8 °F 14.6 °F 14.0 °F 64% 30.29 in 10.0 mi SSW 10.4 mph - N/A   Clear
9:35 AM 26.6 °F 16.2 °F 15.8 °F 64% 30.29 in 10.0 mi SSW 11.5 mph 17.3 mph N/A   Clear
9:55 AM 26.6 °F 16.8 °F 17.6 °F 69% 30.30 in 10.0 mi SSW 10.4 mph - N/A   Clear
10:15 AM 28.4 °F 18.0 °F 19.4 °F 69% 30.29 in 10.0 mi SSW 12.7 mph 16.1 mph N/A   Clear
10:35 AM 32.0 °F 23.0 °F 19.4 °F 60% 30.28 in 10.0 mi SSW 11.5 mph 18.4 mph N/A   Clear
10:55 AM 32.0 °F 21.6 °F 19.4 °F 60% 30.26 in 10.0 mi SW 15.0 mph 21.9 mph N/A   Clear
11:15 AM 33.8 °F 22.8 °F 19.4 °F 56% 30.26 in 10.0 mi SW 18.4 mph 24.2 mph N/A   Clear
11:35 AM 33.8 °F 24.8 °F 19.4 °F 56% 30.25 in 10.0 mi SW 12.7 mph 24.2 mph N/A   Scattered Clouds
11:55 AM 33.8 °F 22.5 °F 19.4 °F 56% 30.23 in 10.0 mi SW 19.6 mph 25.3 mph N/A   Clear
12:15 PM 33.8 °F 23.5 °F 19.4 °F 56% 30.22 in 10.0 mi SW 16.1 mph 21.9 mph N/A   Clear
12:55 PM 35.6 °F 26.6 °F 21.2 °F 56% 30.20 in 10.0 mi WSW 13.8 mph 20.7 mph N/A   Clear
1:15 PM 35.6 °F 26.2 °F 21.2 °F 56% 30.19 in 10.0 mi WSW 15.0 mph - N/A   Clear
1:35 PM 35.6 °F 25.5 °F 21.2 °F 56% 30.18 in 10.0 mi WSW 17.3 mph 20.7 mph N/A   Clear
1:55 PM 35.6 °F 26.6 °F 21.2 °F 56% 30.18 in 10.0 mi WSW 13.8 mph - N/A   Clear
2:15 PM 35.6 °F 26.6 °F 23.0 °F 60% 30.18 in 10.0 mi WSW 13.8 mph 19.6 mph N/A   Clear
2:35 PM 35.6 °F 26.6 °F 23.0 °F 60% 30.17 in 10.0 mi SW 13.8 mph 17.3 mph N/A   Clear
2:55 PM 35.6 °F 26.2 °F 23.0 °F 60% 30.16 in 10.0 mi SW 15.0 mph - N/A   Clear
3:15 PM 35.6 °F 28.6 °F 23.0 °F 60% 30.16 in 10.0 mi SW 9.2 mph 18.4 mph N/A   Clear
3:35 PM 35.6 °F 26.6 °F 24.8 °F 65% 30.17 in 10.0 mi SW 13.8 mph 18.4 mph N/A   Clear
3:55 PM 35.6 °F 27.5 °F 24.8 °F 65% 30.18 in 10.0 mi SW 11.5 mph 16.1 mph N/A   Clear
4:15 PM 33.8 °F 24.8 °F 24.8 °F 70% 30.18 in 10.0 mi SW 12.7 mph - N/A   Clear
4:35 PM 33.8 °F 26.4 °F 24.8 °F 70% 30.18 in 10.0 mi SW 9.2 mph - N/A   Clear
4:55 PM 32.0 °F 24.8 °F 24.8 °F 75% 30.19 in 10.0 mi SW 8.1 mph - N/A   Clear
5:15 PM 32.0 °F 24.2 °F 24.8 °F 75% 30.18 in 10.0 mi SW 9.2 mph - N/A   Clear
5:35 PM 32.0 °F 24.8 °F 26.6 °F 80% 30.19 in 10.0 mi SW 8.1 mph - N/A   Clear
5:55 PM 32.0 °F 24.8 °F 26.6 °F 80% 30.19 in 10.0 mi SW 8.1 mph - N/A   Clear
6:15 PM 32.0 °F 24.8 °F 26.6 °F 80% 30.19 in 10.0 mi SW 8.1 mph - N/A   Clear
6:35 PM 32.0 °F 24.2 °F 26.6 °F 80% 30.18 in 10.0 mi SW 9.2 mph - N/A   Clear
6:55 PM 32.0 °F 24.8 °F 26.6 °F 80% 30.19 in 10.0 mi SW 8.1 mph - N/A   Clear
7:15 PM 32.0 °F 24.8 °F 26.6 °F 80% 30.20 in 10.0 mi SW 8.1 mph - N/A   Clear
7:35 PM 32.0 °F 24.8 °F 26.6 °F 80% 30.19 in 10.0 mi WSW 8.1 mph - N/A   Clear
7:55 PM 32.0 °F 24.8 °F 24.8 °F 75% 30.19 in 10.0 mi WSW 8.1 mph - N/A   Clear
8:15 PM 32.0 °F 24.8 °F 24.8 °F 75% 30.19 in 10.0 mi WSW 8.1 mph - N/A   Clear
8:35 PM 32.0 °F 24.8 °F 23.0 °F 69% 30.19 in 10.0 mi WSW 8.1 mph - N/A   Clear
8:55 PM 30.2 °F 24.3 °F 23.0 °F 75% 30.20 in 10.0 mi WSW 5.8 mph - N/A   Clear
9:15 PM 28.4 °F - 23.0 °F 80% 30.21 in 10.0 mi Calm Calm - N/A   Clear
9:35 PM 28.4 °F 24.6 °F 23.0 °F 80% 30.21 in 10.0 mi NW 3.5 mph - N/A   Clear
9:55 PM 26.6 °F 22.6 °F 23.0 °F 86% 30.21 in 10.0 mi West 3.5 mph - N/A   Clear
10:15 PM 26.6 °F 21.2 °F 23.0 °F 86% 30.21 in 10.0 mi West 4.6 mph - N/A   Clear
10:35 PM 26.6 °F - 23.0 °F 86% 30.21 in 10.0 mi Calm Calm - N/A   Clear
10:55 PM 26.6 °F 21.2 °F 23.0 °F 86% 30.22 in 10.0 mi West 4.6 mph - N/A   Clear
11:15 PM 24.8 °F 19.1 °F 21.2 °F 86% 30.23 in 10.0 mi West 4.6 mph - N/A   Clear
11:35 PM 26.6 °F 21.2 °F 23.0 °F 86% 30.24 in 10.0 mi West 4.6 mph - N/A   Clear
11:55 PM 26.6 °F - 23.0 °F 86% 30.25 in 10.0 mi Calm Calm - N/A   Clear